Location: Valdosta
(30.8330°N, 83.2790°W)
Time: 11:04:11
(UTC-04:00)

Daily predictions for brighter satellites

Satellite Brightness Start Highest point End
(mag) Time Altitude Azimuth Time Altitude Azimuth Time Altitude Azimuth
ATLAS 5 CENTAUR R/B 4.4 20:56:49 10° NNE 20:59:54 14° NE 21:03:03 10° ENE
Cosmos 389 Rocket 2.6 20:56:41 10° N 21:00:06 53° E 21:03:30 10° SSE
Cosmos 921 Rocket 3.7 20:57:44 10° SSW 21:01:55 60° WNW 21:06:12 10° N
USA 234 4.3 21:04:13 10° ENE 21:08:45 20° ESE 21:13:16 10° SSE
Cosmos 1943 3.2 21:03:46 10° NNW 21:09:24 71° ENE 21:14:59 10° SSE
Meteor 2-3 Rocket 3.8 21:04:15 10° S 21:09:43 55° E 21:15:11 10° NNE
Aureole 3 Rocket 3.8 21:03:56 10° N 21:10:08 71° W 21:14:29 10° S
OAO 3 Copernicus 4.3 21:05:03 10° WNW 21:10:09 88° SSW 21:15:06 11° ESE
DELTA 2 R/B(2) 2.7 21:10:23 10° WNW 21:12:12 75° SSW 21:13:21 16° SE
CZ-2D R/B 3.2 21:08:47 10° SSE 21:12:35 79° ENE 21:16:24 10° N
CZ-4 DEB 3.7 21:11:33 10° SE 21:14:21 30° ENE 21:17:12 10° NNE
Cosmos 1844 Rocket 3.7 21:10:49 10° SSE 21:15:12 24° ESE 21:19:35 10° NE
Meteor 1-26 Rocket 4.4 21:09:24 10° N 21:15:12 61° E 21:21:01 10° SSE
Cosmos 2056 Rocket 4.2 21:10:57 10° SSE 21:15:32 32° E 21:20:05 10° NE
Okean 1-7 3.2 21:11:52 10° N 21:16:04 52° E 21:20:16 10° SSE
Cosmos 1371 Rocket 4.2 21:12:17 10° S 21:17:25 49° ESE 21:22:31 10° NNE
Cosmos 1340 Rocket 2.8 21:16:09 10° S 21:20:02 58° E 21:23:57 10° NNE
Cosmos 1461 3.8 21:18:02 10° SW 21:22:41 61° WNW 21:27:16 10° NNE
Cosmos 1939 Rocket 4.2 21:21:35 14° ESE 21:23:48 22° ENE 21:26:48 10° NNE
NOSS 3-2 (C) 4.3 21:17:10 10° NW 21:24:53 71° WSW 21:32:59 10° SSE
Atlas Centaur 2 0.9 21:22:37 10° WSW 21:26:08 66° S 21:29:21 13° E
Cosmos 1703 Rocket 4.2 21:24:49 10° NNW 21:29:13 59° W 21:33:36 10° S
Cosmos 2263 Rocket 3.6 21:24:22 10° SW 21:29:44 43° WNW 21:35:07 10° N
FENGYUN 3A 4.0 21:27:44 10° S 21:33:07 70° WSW 21:38:30 10° NNW
CENTAUR R/B 3.7 21:30:05 10° NNW 21:37:37 43° NE 21:43:29 18° ESE
SL-8 R/B 4.4 21:34:18 10° WSW 21:39:01 56° NW 21:43:45 10° NE
NOSS 2-2 (D) 3.3 21:36:51 10° SSW 21:40:52 87° ESE 21:45:15 10° NNE
Coronas F rocket 1.1 21:40:41 19° S 21:42:23 67° E 21:45:00 10° NNE
Cosmos 2184 Rocket 3.9 21:37:48 10° S 21:43:54 69° E 21:50:02 10° NNE
YAOGAN 11 4.1 21:45:52 13° SSE 21:49:48 87° WSW 21:54:21 10° NNW
deb Chang Zheng 4 3.5 21:46:33 10° NNE 21:50:57 72° ESE 21:55:22 10° S
Cosmos 1908 Rocket 4.4 21:53:55 28° ESE 21:54:47 30° E 21:58:38 10° NNE
Cosmos 1624 Rocket 4.0 21:49:42 10° SSW 21:54:56 86° WNW 22:00:15 10° NNE
NOSS 2-2 (C) 4.0 21:51:36 10° SW 21:55:34 61° WNW 21:59:55 10° NNE
Cosmos 1892 3.0 21:52:48 10° SSW 21:56:35 68° W 22:00:24 10° N
Envisat 3.2 21:53:57 24° SE 21:56:50 55° ENE 22:01:47 10° N
SL-08 ROCKET BODY 4.3 21:51:03 10° S 21:57:08 80° E 22:03:07 10° N
USA 186 4.1 21:55:45 10° SW 21:57:58 20° W 22:00:21 10° NW
Cosmos 1733 Rocket 3.0 21:56:22 10° S 22:00:48 86° W 22:05:13 10° N
Meteor 2-10 Rocket 3.7 21:55:01 10° N 22:00:51 77° E 22:04:45 21° SSE
deb Centaur AC-2 4.3 21:56:04 10° W 22:01:54 78° S 22:04:37 27° E
Meteosat 1 Rocket2 4.4 21:58:36 10° WSW 22:04:56 70° S 22:13:11 16° E
Cosmos 724 4.4 21:58:59 10° NNW 22:05:11 87° WSW 22:08:56 26° SSE
Meteor 2-6 Rocket 4.5 22:03:17 10° N 22:09:06 54° E 22:11:37 32° SE
ERBS 4.1 22:13:51 10° N 22:16:36 22° NE 22:16:36 22° NE
Cosmos 1452 Rocket 3.5 22:16:33 32° SSE 22:18:45 56° ESE 22:23:53 10° NNE
Cosmos 407 Rocket 4.1 22:16:01 10° N 22:20:57 39° ENE 22:21:52 36° E
SPOT 5 3.0 22:19:21 40° SE 22:21:12 69° ENE 22:26:29 10° N
H-2A R/B 2.3 22:24:05 37° S 22:25:41 68° WSW 22:29:58 10° NNW
ERS-1 Rocket 3.9 22:22:06 17° SSW 22:25:42 45° W 22:30:32 10° NNW
COSMOS 2406 3.1 22:23:27 10° NNW 22:29:13 79° ENE 22:30:59 46° SSE
MetOp-B 4.1 22:28:34 47° SE 22:30:00 67° ENE 22:35:19 10° N
EO 1 Delta rocket 4.5 22:24:05 10° N 22:30:14 69° WNW 22:34:08 17° SSW
Cosmos 1190 Rocket 4.0 22:26:26 10° N 22:31:36 65° ENE 22:32:30 54° ESE
Cosmos 1862 3.2 22:33:23 78° ENE 22:33:23 78° ENE 22:37:23 10° N
Meteor 1-10 Rocket 4.4 22:28:40 10° NNW 22:34:28 71° W 22:37:11 32° S
GPS 2-05 Rocket1 4.3 22:33:03 10° WSW 22:35:06 31° WSW 22:35:06 31° WSW
Terra 3.8 22:37:59 16° NE 22:37:59 16° NE 22:40:04 10° NNE
ARGOS 3.4 22:38:34 46° E 22:39:01 47° ENE 22:44:08 10° N
Nadezhda 3 Rocket 4.0 22:33:38 10° N 22:39:59 71° E 22:41:46 48° SSE
Okean 2 Rocket 3.8 22:42:45 41° NE 22:42:45 41° NE 22:46:00 10° NNE
Cosmos 2278 Rocket 2.0 22:43:31 49° S 22:45:02 75° ESE 22:50:43 10° NNE
ATLAS 5 CENTAUR R/B 2.4 22:39:09 10° NNW 22:45:22 85° ENE 22:46:55 55° SE
Cosmos 1844 4.1 22:41:47 10° SSW 22:47:27 65° WNW 22:53:13 10° NNE
Cosmos 2341 Rocket 3.9 22:46:29 38° S 22:49:10 88° W 22:55:29 10° N
Abrixas rocket 4.0 22:47:49 10° NW 22:49:51 32° WNW 22:49:51 32° WNW
USA 234 3.3 22:45:31 10° NE 22:52:03 81° NW 22:58:33 10° SW
Cosmos 1825 3.0 22:54:31 49° NNW 22:54:31 49° NNW 22:57:32 10° N
CZ-4B R/B 3.5 22:49:04 10° N 22:54:01 74° WNW 22:54:54 58° SW
Cosmos 1844 Rocket 4.1 22:53:39 10° SW 22:58:48 36° WNW 23:03:58 10° N
Cosmos 676 Rocket 4.0 22:56:07 10° NNW 23:01:02 70° NE 23:01:02 70° NE
Meteor 1-27 Rocket 3.9 23:00:24 10° NNW 23:05:53 63° W 23:06:41 56° SW
Cosmos 1782 Rocket 4.1 23:07:22 56° WNW 23:07:22 56° WNW 23:11:24 10° N
Cosmos 1954 Rocket 4.3 23:03:51 10° N 23:08:21 58° NNE 23:08:21 58° NNE
Cosmos 2082 Rocket 4.0 23:06:12 10° NNE 23:09:37 18° NE 23:09:37 18° NE
Atlas Centaur 2 3.5 23:11:04 10° W 23:12:01 18° W 23:12:01 18° W
Cosmos 2297 4.3 23:16:56 45° NE 23:16:56 45° NE 23:20:58 10° NNE
SL-8 Rocket 3.8 23:17:09 80° S 23:17:33 89° W 23:23:51 10° N
CENTAUR R/B 4.0 23:20:55 10° NW 23:28:18 40° WSW 23:30:41 33° SW
Cosmos 1975 Rocket 4.4 23:24:38 10° NNW 23:27:24 36° NW 23:27:24 36° NW
FALCON 9 R/B 4.1 23:08:29 10° WNW 23:35:28 48° SW 23:37:44 43° SSW
H-2A R/B 2.6 23:36:42 57° N 23:36:42 57° N 23:40:57 10° N
